15min,AgWx,beryljct,423,05AUG2021:00:00:00,64.8,12.86,63.4,62.8,62.7,66.2,60.9,60,68,49,1.134,48.7,50.7,46.7,0.592,0.9,171,53,4.4,-0.00023,-0.00032,69.3,69.3,28,0,0,.,13.11,0.00,0.00
15min,AgWx,beryljct,423,05AUG2021:00:15:00,64.1,12.85,62.8,62.3,62.7,63.1,62.2,59,60,56,1.130,48.1,48.8,47.2,0,1.2,280,42,2.9,-0.00019,-0.00026,69.2,69.3,28,0,0,.,13.11,0.00,0.00
15min,AgWx,beryljct,423,05AUG2021:00:30:00,63.5,12.84,64.5,64.7,63.5,64.9,62.3,56,63,49,1.038,47.4,50.5,45.0,2.828,1.1,296,2.9,2.9,-0.00022,-0.00030,68.5,69.3,28,0,0,.,13.11,0.00,0.00
15min,AgWx,beryljct,423,05AUG2021:00:45:00,63.2,12.82,58.8,59.8,62.3,64.7,59.8,59,74,50,1.294,47.6,51.5,45.3,4.341,3.0,202,64,5.1,0.00001,0.00005,67.7,69.2,28,0,0,.,13.11,0.00,0.00
15min,AgWx,beryljct,423,05AUG2021:01:00:00,62.4,12.82,61.5,60.9,59.8,61.5,58.8,73,77,65,1.252,51.1,51.8,49.5,2.718,3.2,178,6.9,4.3,-0.00005,-0.00005,68.2,69.2,28,0,0,.,13.11,0.00,0.00
15min,AgWx,beryljct,423,05AUG2021:01:15:00,61.8,12.81,58.9,58.8,59.8,61.0,58.8,72,75,69,1.251,50.8,51.5,50.1,0,1.5,157,15,3.9,-0.00018,-0.00024,67.1,69.2,28,0,0,.,13.11,0.00,0.00
15min,AgWx,beryljct,423,05AUG2021:01:30:00,61.1,12.81,62.3,60.2,57.8,60.2,56.6,78,83,63,1.124,51.1,52.0,47.7,5.261,3.3,140,12,6.1,-0.00009,-0.00009,67.6,69.2,28,0,0,.,13.11,0.00,0.00
15min,AgWx,beryljct,423,05AUG2021:01:45:00,60.8,12.8,60.8,58.8,61.5,63.9,58.5,61,72,53,1.191,47.9,49.5,46.2,2.148,3.3,184,6.2,5.7,0.00002,0.00007,68.1,69.1,28,0,0,.,13.11,0.00,0.00
15min,AgWx,beryljct,423,05AUG2021:02:00:00,60.6,12.78,58.8,60.5,61.2,62.7,59.0,62,69,55,1.191,47.9,49.2,45.6,0.767,0.6,190,7.6,2.1,-0.00027,-0.00040,68.1,69.1,28,0,0,.,13.11,0.00,0.00
15min,AgWx,beryljct,423,05AUG2021:02:15:00,60.1,12.77,56.9,56.5,58.3,60.3,56.4,73,80,65,1.232,49.6,50.5,48.3,0.548,1.0,181,22,3.3,-0.00023,-0.00033,68.0,69.0,28,0,0,.,13.12,0.00,0.00
15min,AgWx,beryljct,423,05AUG2021:02:30:00,59.4,12.77,55.8,56.3,56.9,57.5,56.2,76,80,72,1.223,49.5,50.3,48.6,0,0.5,167,0.1,1.7,-0.00028,-0.00042,67.9,69.0,28,0,0,.,13.12,0.00,0.00
15min,AgWx,beryljct,423,05AUG2021:02:45:00,58.7,12.75,60.7,60.3,56.4,60.3,54.4,76,83,61,1.095,48.9,49.9,47.0,0,0.1,167,0.1,0.8,-0.00033,-0.00052,67.7,69.0,28,0,0,.,13.11,0.00,0.00
15min,AgWx,beryljct,423,05AUG2021:03:00:00,58.2,12.75,55.5,55.8,57.4,60.7,55.4,74,82,61,1.209,49.0,50.6,46.8,0.329,1.3,159,7.5,4.5,-0.00020,-0.00027,67.6,68.9,28,0,0,.,13.11,0.00,0.00
15min,AgWx,beryljct,423,05AUG2021:03:15:00,57.7,12.74,55.5,55.6,55.4,56.0,54.9,82,84,80,1.253,50.0,50.6,49.6,0.965,0.5,136,2.8,2.9,-0.00028,-0.00042,67.5,68.9,28,0,0,.,13.11,0.00,0.00
15min,AgWx,beryljct,423,05AUG2021:03:30:00,57.1,12.73,53.7,53.6,54.2,56.5,53.0,84,88,77,1.205,49.5,50.5,48.9,1.074,1.9,132,45,3.7,-0.00018,-0.00024,67.3,68.8,28,0,0,.,13.12,0.00,0.00
15min,AgWx,beryljct,423,05AUG2021:03:45:00,56.6,12.73,53.8,53.7,54.4,55.3,53.5,83,86,78,1.201,49.2,50.1,48.4,1.6,1.1,332,0.5,2.1,-0.00023,-0.00032,65.8,68.8,28,0,0,.,13.12,0.00,0.00
15min,AgWx,beryljct,423,05AUG2021:04:00:00,55.9,12.72,53.0,52.8,53.0,53.7,52.5,86,88,85,1.164,49.0,49.4,48.3,1.315,1.5,195,40,3.2,-0.00021,-0.00029,65.0,68.8,28,0,0,.,13.12,0.00,0.00
15min,AgWx,beryljct,423,05AUG2021:04:15:00,55.4,12.71,53.4,53.6,53.9,54.9,52.8,84,87,81,1.167,49.3,49.8,48.7,0.877,0.4,213,0.1,1.4,-0.00029,-0.00044,65.8,68.7,28,0,0,.,13.12,0.00,0.00
15min,AgWx,beryljct,423,05AUG2021:04:30:00,55.0,12.71,54.1,53.7,53.1,53.7,52.4,85,87,83,1.193,48.8,49.3,48.2,0.636,1.5,294,26,3.9,-0.00021,-0.00028,65.3,68.6,28,0,0,.,13.12,0.00,0.00
15min,AgWx,beryljct,423,05AUG2021:04:45:00,54.7,12.71,53.7,54.0,54.0,54.9,53.5,82,85,80,1.180,48.7,49.2,48.1,0,1.1,338,26,2.7,-0.00023,-0.00033,65.8,68.6,28,0,0,.,13.12,0.00,0.00
15min,AgWx,beryljct,423,05AUG2021:05:00:00,54.3,12.7,50.6,52.4,52.3,53.9,51.7,86,88,83,1.151,48.3,48.9,47.5,0.899,0.0,0.7,0.0,0.9,0.00001,0.00001,66.3,68.5,28,0,0,.,13.12,0.00,0.00
15min,AgWx,beryljct,423,05AUG2021:05:15:00,53.9,12.69,53.4,53.2,52.0,53.3,51.2,88,90,85,1.194,48.6,49.5,47.4,1.732,1.6,0.7,0.0,2.9,0.00006,0.00010,66.2,68.5,28,0,0,.,13.12,0.00,0.00
15min,AgWx,beryljct,423,05AUG2021:05:30:00,53.6,12.69,51.2,51.6,52.5,53.3,51.6,88,89,85,1.161,49.1,49.4,48.5,2.872,1.5,10,47,3.4,0.00006,0.00009,66.1,68.4,29,0,0,.,13.12,0.00,0.00
15min,AgWx,beryljct,423,05AUG2021:05:45:00,53.3,12.68,51.3,51.3,51.6,52.4,51.2,91,92,89,1.163,49.1,50.2,48.3,2.74,2.9,159,19,4.2,0.00009,0.00014,66.0,68.3,28,3,0,.,13.12,0.00,0.00
15min,AgWx,beryljct,423,05AUG2021:06:00:00,53.2,12.7,51.4,51.5,52.3,53.3,51.2,89,91,85,1.137,49.0,49.7,47.6,0,2.7,182,2.2,4.3,0.00016,0.00023,65.9,68.3,28,14,0,.,13.12,0.00,0.00
15min,AgWx,beryljct,423,05AUG2021:06:15:00,53.5,12.72,55.0,54.4,53.9,54.9,51.5,85,90,81,1.200,49.5,50.1,48.1,3.398,2.1,179,6.2,3.5,0.00034,0.00042,65.7,68.2,28,44,0,.,13.12,0.00,0.00
15min,AgWx,beryljct,423,05AUG2021:06:30:00,54.2,12.74,56.1,56.1,55.5,56.4,54.5,80,84,77,1.224,49.5,50.0,49.1,2.302,1.1,178,6.0,3.1,0.00053,0.00060,65.6,68.2,28,83,0,.,13.11,0.00,0.00
15min,AgWx,beryljct,423,05AUG2021:06:45:00,55.7,12.72,60.3,59.8,57.4,59.8,56.1,80,83,73,1.287,51.3,52.3,49.9,2.061,2.0,176,4.9,3.3,0.00077,0.00090,65.2,68.1,28,125,0,.,13.12,0.00,0.00
15min,AgWx,beryljct,423,05AUG2021:07:00:00,57.9,12.73,60.7,60.8,60.6,61.3,59.8,71,76,66,1.360,51.0,53.1,49.4,1.951,1.9,163,4.9,2.8,0.00109,0.00127,65.1,68.1,28,171,0,.,13.12,0.00,0.00
15min,AgWx,beryljct,423,05AUG2021:07:15:00,60.5,12.78,62.2,62.3,61.2,62.3,60.3,81,86,75,1.558,55.4,57.7,53.0,1.096,1.0,160,0.1,2.3,0.00128,0.00141,64.9,68.0,28,217,0,.,13.11,0.00,0.00
15min,AgWx,beryljct,423,05AUG2021:07:30:00,63.0,12.83,64.2,64.1,63.4,64.2,62.2,73,82,62,1.335,54.6,57.0,51.0,0.68,1.1,160,0.1,2.2,0.00162,0.00179,65.0,68.0,28,265,0,.,13.11,0.00,0.00
15min,AgWx,beryljct,423,05AUG2021:07:45:00,65.6,12.9,65.8,65.2,64.5,65.2,64.1,71,77,65,1.517,55.1,57.1,52.1,0.022,0.9,160,0.0,2.2,0.00193,0.00212,64.8,67.9,28,313,0,.,13.11,0.00,0.00
15min,AgWx,beryljct,423,05AUG2021:08:00:00,67.8,13.07,66.4,66.4,65.7,66.4,65.2,67,74,61,1.508,54.5,56.7,52.4,0,0.2,159,0.0,0.7,0.00226,0.00242,64.7,67.8,28,366,0,.,13.11,0.00,0.00
15min,AgWx,beryljct,423,05AUG2021:08:15:00,70.0,13.37,67.5,67.8,67.2,68.0,66.2,60,72,43,1.230,52.9,57.7,44.3,0.175,0.1,159,0.0,0.8,0.00263,0.00281,64.7,67.8,28,421,0,.,13.10,0.00,0.00
15min,AgWx,beryljct,423,05AUG2021:08:30:00,72.3,13.64,69.0,69.2,68.6,69.8,67.8,57,62,50,1.497,52.8,55.9,48.7,0,0.1,159,0.0,0.6,0.00300,0.00321,64.8,67.7,28,472,0,.,13.10,0.00,0.00
15min,AgWx,beryljct,423,05AUG2021:08:45:00,74.4,14.04,71.3,70.9,69.7,70.9,69.2,62,67,58,1.609,56.1,58.4,53.7,1.271,0.6,160,0.1,1.4,0.00319,0.00346,64.9,67.6,28,487,0,.,13.10,0.00,0.00
15min,AgWx,beryljct,423,05AUG2021:09:00:00,76.4,14.03,72.8,72.9,71.8,73.0,70.6,55,64,48,1.386,54.6,58.3,51.6,0.723,0.4,160,0.1,1.4,0.00386,0.00416,65.0,67.6,28,582,0,.,13.09,0.00,0.00
15min,AgWx,beryljct,423,05AUG2021:09:15:00,78.3,14.03,75.6,76.1,73.8,76.1,72.8,48,62,32,1.081,52.6,59.5,43.5,3.091,1.8,36,36,3.7,0.00402,0.00449,65.2,67.5,28,578,0,.,13.09,0.00,0.00
15min,AgWx,beryljct,423,05AUG2021:09:30:00,80.4,13.94,77.2,76.3,76.5,77.3,75.9,35,48,28,1.468,46.8,54.9,41.0,1.315,2.7,12,26,4.8,0.00486,0.00560,65.3,67.5,28,672,0,.,13.09,0.00,0.00
15min,AgWx,beryljct,423,05AUG2021:09:45:00,82.5,13.92,77.6,77.4,77.3,78.0,76.4,41,51,35,1.312,51.8,56.8,47.3,1.359,1.3,37,13,2.5,0.00483,0.00534,65.5,67.4,28,681,0,.,13.08,0.00,0.00
15min,AgWx,beryljct,423,05AUG2021:10:00:00,84.3,13.88,78.4,78.8,78.1,79.0,77.5,43,52,34,1.700,54.0,59.8,47.8,2.411,1.6,57,8.0,2.7,0.00520,0.00577,65.5,67.4,28,729,0,.,13.08,0.00,0.00
15min,AgWx,beryljct,423,05AUG2021:10:15:00,85.8,13.85,79.7,80.0,79.5,80.1,78.8,43,51,33,1.598,54.8,59.6,48.5,2.302,2.2,75,17,3.5,0.00563,0.00632,64.2,67.4,28,774,0,.,13.08,0.00,0.00
15min,AgWx,beryljct,423,05AUG2021:10:30:00,86.7,13.83,79.8,79.9,79.8,80.0,79.5,50,57,37,1.917,59.3,63.4,51.7,4.165,3.3,106,9.8,5.3,0.00592,0.00670,65.5,67.4,28,805,0,.,13.08,0.00,0.00
15min,AgWx,beryljct,423,05AUG2021:10:45:00,87.0,13.8,80.9,81.1,80.5,81.1,79.9,50,58,44,1.783,59.9,64.0,56.4,3.771,3.3,96,11,4.3,0.00613,0.00693,65.7,67.3,28,830,0,.,13.08,0.00,0.00
15min,AgWx,beryljct,423,05AUG2021:11:00:00,87.4,13.45,82.0,81.9,81.5,81.9,81.1,48,56,39,1.667,59.6,64.1,54.4,3.508,3.3,96,11,4.7,0.00639,0.00723,65.4,67.3,28,857,0,.,13.08,0.00,0.00
15min,AgWx,beryljct,423,05AUG2021:11:15:00,87.8,13.44,83.9,84.4,83.0,84.9,81.9,48,57,35,1.797,61.1,66.2,54.1,7.936,5.9,95,30,11.4,0.00680,0.00796,65.9,67.3,28,883,0,.,13.08,0.00,0.00
15min,AgWx,beryljct,423,05AUG2021:11:30:00,88.3,13.39,89.3,89.1,86.6,89.1,84.3,31,45,23,1.058,51.6,61.0,46.1,10.37,9.2,167,26,13.9,0.00775,0.00973,65.9,67.3,28,902,0,.,13.09,0.00,0.00
15min,AgWx,beryljct,423,05AUG2021:11:45:00,89.4,13.34,87.8,87.8,88.3,89.1,86.9,24,29,20,1.075,47.0,51.2,42.8,8.81,9.9,172,15,15.1,0.00824,0.01053,66.4,67.3,28,922,0,.,13.08,0.00,0.00
15min,AgWx,beryljct,423,05AUG2021:12:00:00,90.2,13.31,89.8,90.7,89.5,90.8,87.6,22,30,19,1.107,45.8,52.7,41.7,10.54,10.7,196,17,16.8,0.00855,0.01104,66.6,67.3,28,935,0,.,13.08,0.00,0.00
15min,AgWx,beryljct,423,05AUG2021:12:15:00,91.2,13.31,89.9,91.3,90.4,91.3,89.4,21,25,18,1.013,45.0,49.4,41.0,7.826,10.5,194,14,18.5,0.00870,0.01124,66.4,67.3,28,945,0,.,13.08,0.00,0.00
15min,AgWx,beryljct,423,05AUG2021:12:30:00,92.0,13.38,89.8,90.2,90.8,91.8,89.9,21,27,18,0.979,45.5,51.1,41.1,13.59,10.2,182,16,18.6,0.00868,0.01115,67.2,67.3,28,951,0,.,13.07,0.00,0.00
15min,AgWx,beryljct,423,05AUG2021:12:45:00,92.1,13.37,90.4,90.5,89.8,90.9,88.6,20,23,17,1.048,43.9,48.2,39.6,11.38,12.1,182,30,23.0,0.00836,0.01112,67.4,67.4,27,855,0,.,13.08,0.00,0.00
15min,AgWx,beryljct,423,05AUG2021:13:00:00,92.5,13.39,89.8,90.5,91.2,91.8,90.5,19,23,16,0.899,43.5,47.7,39.1,13.81,11.1,200,22,17.3,0.00893,0.01161,67.6,67.4,28,959,0,.,13.08,0.00,0.00
15min,AgWx,beryljct,423,05AUG2021:13:15:00,92.7,13.33,90.3,91.2,90.6,91.2,89.8,20,24,16,0.831,43.7,48.3,38.1,10.87,10.9,224,12,18.0,0.00882,0.01144,67.8,67.4,27,955,0,.,13.08,0.00,0.00
15min,AgWx,beryljct,423,05AUG2021:13:30:00,93.1,13.31,89.9,91.0,91.6,92.5,90.9,19,22,15,1.048,43.4,47.7,37.9,8.97,10.4,211,21,21.8,0.00876,0.01135,67.8,67.5,27,944,0,.,13.08,0.00,0.00
15min,AgWx,beryljct,423,05AUG2021:13:45:00,93.3,13.3,93.5,92.7,91.5,92.9,90.1,19,27,15,0.906,43.1,52.2,35.9,15.92,12.6,210,24,21.0,0.00903,0.01198,69.0,67.5,27,935,0,.,13.08,0.00,0.00
15min,AgWx,beryljct,423,05AUG2021:14:00:00,93.7,13.26,91.1,92.0,92.1,92.8,91.5,17,21,15,0.849,40.7,45.7,37.1,9.19,13.3,202,10,18.6,0.00915,0.01231,69.0,67.6,27,918,0,.,13.08,0.00,0.00
15min,AgWx,beryljct,423,05AUG2021:14:15:00,93.9,13.34,91.0,92.1,92.3,92.8,91.7,17,20,15,0.857,41.2,45.4,38.2,12.45,14.4,193,13,20.8,0.00911,0.01241,69.3,67.6,27,888,0,.,13.08,0.00,0.00
15min,AgWx,beryljct,423,05AUG2021:14:30:00,94.1,13.27,92.4,92.7,92.4,92.7,91.8,16,17,14,0.836,39.6,41.7,37.2,16.81,15.7,192,12,21.2,0.00922,0.01277,69.4,67.6,27,870,0,.,13.08,0.00,0.00
15min,AgWx,beryljct,423,05AUG2021:14:45:00,94.3,13.23,91.2,91.5,92.1,92.8,90.5,17,21,15,0.854,41.7,46.1,37.8,18.2,13.2,202,20,19.7,0.00858,0.01165,68.7,67.7,27,843,0,.,13.08,0.00,0.00
15min,AgWx,beryljct,423,05AUG2021:15:00:00,94.4,13.23,91.7,92.2,91.7,92.3,91.0,18,23,16,0.884,42.1,48.1,38.7,11.14,11.8,202,14,21.5,0.00808,0.01089,69.3,67.8,27,808,0,.,13.08,0.00,0.00
15min,AgWx,beryljct,423,05AUG2021:15:15:00,94.7,13.23,91.0,91.7,92.1,92.7,91.4,18,20,16,0.890,42.2,45.5,38.8,9.69,13.2,196,15,19.6,0.00812,0.01117,69.1,67.8,27,776,0,.,13.08,0.00,0.00
15min,AgWx,beryljct,423,05AUG2021:15:30:00,94.8,13.25,91.8,91.1,91.8,92.2,91.1,18,22,16,0.999,42.8,47.3,39.3,8.94,11.2,197,14,20.8,0.00738,0.01003,69.5,67.9,27,726,0,.,13.08,0.00,0.00
15min,AgWx,beryljct,423,05AUG2021:15:45:00,94.9,13.22,90.3,90.4,91.4,92.0,90.4,18,20,16,0.940,41.9,44.8,38.9,14.38,12.4,202,16,17.5,0.00735,0.01018,69.5,67.9,27,698,0,.,13.08,0.00,0.00
15min,AgWx,beryljct,423,05AUG2021:16:00:00,94.7,13.22,90.4,91.0,91.2,91.8,90.4,18,21,16,0.935,42.4,45.6,39.2,9.97,11.7,206,14,17.6,0.00697,0.00967,69.6,68.0,27,662,0,.,13.09,0.00,0.00
15min,AgWx,beryljct,423,05AUG2021:16:15:00,94.4,13.22,90.7,91.5,90.4,91.5,89.5,21,26,17,0.890,44.7,50.0,40.0,8.83,9.6,213,17,16.3,0.00601,0.00824,69.7,68.0,27,595,0,.,13.09,0.00,0.00
15min,AgWx,beryljct,423,05AUG2021:16:30:00,94.4,13.23,91.2,91.3,91.2,91.6,90.6,18,20,16,0.909,41.8,44.9,39.1,14.01,11.8,187,15,19.8,0.00639,0.00907,69.8,68.1,27,576,0,.,13.08,0.00,0.00
15min,AgWx,beryljct,423,05AUG2021:16:45:00,94.3,13.25,89.9,90.8,91.2,91.5,90.8,18,19,16,0.820,41.3,43.6,39.1,11.18,13.3,200,13,19.6,0.00635,0.00928,69.8,68.1,27,526,0,.,13.09,0.00,0.00
15min,AgWx,beryljct,423,05AUG2021:17:00:00,94.1,13.23,91.5,91.3,91.4,91.8,90.7,17,19,15,0.905,39.7,42.9,37.9,15.98,14.0,190,11,19.4,0.00623,0.00930,69.9,68.2,27,483,0,.,13.09,0.00,0.00
15min,AgWx,beryljct,423,05AUG2021:17:15:00,93.8,13.21,90.5,91.0,90.9,91.3,90.0,17,21,15,0.819,40.1,45.2,36.4,13.42,13.3,195,11,19.8,0.00572,0.00863,69.9,68.2,27,434,0,.,13.09,0.00,0.00
15min,AgWx,beryljct,423,05AUG2021:17:30:00,93.3,13.28,89.5,90.2,90.7,91.0,90.2,17,18,15,0.863,39.5,41.9,37.7,9.73,13.9,195,9.8,22.5,0.00549,0.00848,69.9,68.3,27,383,0,.,13.09,0.00,0.00
15min,AgWx,beryljct,423,05AUG2021:17:45:00,92.9,13.27,88.9,90.2,90.4,91.0,89.6,17,19,15,0.876,39.7,42.5,37.5,9.49,13.4,196,14,20.5,0.00504,0.00791,70.0,68.3,27,335,0,.,13.09,0.00,0.00
15min,AgWx,beryljct,423,05AUG2021:18:00:00,92.3,13.21,89.6,89.6,89.6,90.2,89.0,18,20,16,0.844,40.6,43.1,38.1,14.4,11.8,206,12,17.2,0.00427,0.00678,70.0,68.4,27,285,0,.,13.09,0.00,0.00
15min,AgWx,beryljct,423,05AUG2021:18:15:00,91.6,13.09,89.9,89.7,89.6,90.2,88.9,18,20,16,0.810,40.2,42.5,38.5,14.47,12.2,190,9.6,18.2,0.00403,0.00660,70.0,68.4,27,236,0,.,13.09,0.00,0.00
15min,AgWx,beryljct,423,05AUG2021:18:30:00,91.1,13.04,88.8,88.4,88.8,89.8,88.1,19,21,17,0.882,40.7,43.1,38.6,10.22,10.4,204,9.9,15.8,0.00324,0.00545,70.0,68.5,27,186,0,.,13.09,0.00,0.00
15min,AgWx,beryljct,423,05AUG2021:18:45:00,90.4,13.02,88.3,88.0,88.6,89.3,87.9,18,20,16,0.826,39.6,41.4,37.8,11.64,11.7,200,13,16.1,0.00212,0.00280,70.0,68.5,26,140,0,.,13.09,0.00,0.00
15min,AgWx,beryljct,423,05AUG2021:19:00:00,89.6,13.03,87.5,87.1,87.7,88.7,86.7,19,20,17,0.801,40.0,41.6,37.9,10.37,9.6,199,8.5,16.1,0.00174,0.00237,69.9,68.5,27,97,0,.,13.10,0.00,0.00
15min,AgWx,beryljct,423,05AUG2021:19:15:00,88.6,12.99,84.8,86.4,87.1,87.6,86.4,18,20,17,0.855,39.1,40.5,37.6,6.182,10.3,203,9.0,18.5,0.00172,0.00232,69.9,68.6,27,61,0,.,13.09,0.00,0.00
15min,AgWx,beryljct,423,05AUG2021:19:30:00,87.5,12.98,85.4,85.2,85.9,86.7,85.0,19,20,17,0.785,39.1,40.8,36.9,10.5,8.8,206,9.1,16.9,0.00140,0.00194,69.9,68.6,26,29,0,.,13.10,0.00,0.00
15min,AgWx,beryljct,423,05AUG2021:19:45:00,86.1,12.97,83.8,83.5,84.7,85.4,83.5,20,21,18,0.813,38.9,40.1,37.2,8.55,7.8,204,10,11.1,0.00117,0.00167,69.9,68.7,27,6,0,.,13.10,0.00,0.00
15min,AgWx,beryljct,423,05AUG2021:20:00:00,84.5,12.96,80.5,81.0,82.3,83.7,80.9,22,25,20,0.873,40.2,41.4,38.6,4.713,5.8,206,6.7,11.0,0.00079,0.00118,69.8,68.7,27,1,0,.,13.10,0.00,0.00
15min,AgWx,beryljct,423,05AUG2021:20:15:00,82.6,12.95,79.0,79.0,79.7,81.0,78.8,26,27,24,0.877,41.4,42.1,40.4,5.897,5.1,212,4.8,6.7,0.00061,0.00092,69.8,68.7,27,0,0,.,13.10,0.00,0.00
15min,AgWx,beryljct,423,05AUG2021:20:30:00,80.9,12.95,78.6,79.1,78.6,79.4,77.9,27,28,25,0.893,41.5,42.6,40.3,5.239,5.3,210,6.2,7.1,0.00061,0.00093,69.8,68.8,27,0,0,.,13.10,0.00,0.00
15min,AgWx,beryljct,423,05AUG2021:20:45:00,79.8,12.93,78.2,78.1,78.7,79.4,78.1,27,28,26,0.903,41.7,42.6,41.0,5.086,5.1,208,4.1,7.4,0.00059,0.00090,69.7,68.8,27,0,0,.,13.10,0.00,0.00
15min,AgWx,beryljct,423,05AUG2021:21:00:00,78.9,12.91,77.1,77.1,78.1,78.6,77.0,28,30,26,0.949,42.0,43.5,41.1,4.932,5.2,210,6.7,6.6,0.00058,0.00088,69.8,68.8,27,0,0,.,13.10,0.00,0.00
15min,AgWx,beryljct,423,05AUG2021:21:15:00,77.8,12.92,73.9,74.1,76.3,77.1,74.1,31,37,29,1.052,43.3,46.0,42.3,2.258,4.7,213,5.7,6.2,0.00047,0.00073,69.9,68.8,27,0,0,.,13.10,0.00,0.00
15min,AgWx,beryljct,423,05AUG2021:21:30:00,76.3,12.92,75.7,75.2,74.3,75.4,73.2,34,39,31,0.947,44.3,46.9,42.2,4.669,4.2,165,10,5.8,0.00035,0.00055,69.8,68.9,27,0,0,.,13.11,0.00,0.00
15min,AgWx,beryljct,423,05AUG2021:21:45:00,75.0,12.92,71.5,72.7,74.1,75.1,72.7,34,38,32,1.041,44.0,45.9,43.0,3.793,4.2,170,3.6,4.9,0.00035,0.00056,69.7,68.9,27,0,0,.,13.11,0.00,0.00
15min,AgWx,beryljct,423,05AUG2021:22:00:00,74.0,12.91,70.9,71.6,73.4,74.5,71.6,35,41,32,1.071,44.4,46.9,42.8,3.486,4.2,166,4.0,5.9,0.00034,0.00054,69.5,68.9,27,0,0,.,13.11,0.00,0.00
15min,AgWx,beryljct,423,05AUG2021:22:15:00,72.8,12.91,70.2,70.5,69.3,71.5,68.0,46,50,41,1.036,47.4,49.2,45.5,5.7,4.5,164,4.0,5.9,0.00027,0.00042,69.4,68.9,27,0,0,.,13.11,0.00,0.00
15min,AgWx,beryljct,423,05AUG2021:22:30:00,71.6,12.9,69.2,69.9,69.8,71.3,68.3,44,49,39,1.061,46.6,48.3,45.1,4.932,4.2,175,6.6,6.2,0.00025,0.00041,69.0,68.9,27,0,0,.,13.12,0.00,0.00
15min,AgWx,beryljct,423,05AUG2021:22:45:00,70.8,12.9,68.7,67.6,70.0,71.0,67.6,42,50,38,1.122,45.6,48.3,44.4,4.253,4.8,170,5.3,6.2,0.00034,0.00052,68.5,68.9,27,0,0,.,13.12,0.00,0.00
15min,AgWx,beryljct,423,05AUG2021:23:00:00,69.8,12.88,69.8,69.5,67.9,70.0,65.1,47,55,40,1.006,46.8,49.2,44.6,2.784,3.4,174,4.4,4.6,0.00013,0.00023,68.8,68.9,27,0,0,.,13.12,0.00,0.00
15min,AgWx,beryljct,423,05AUG2021:23:15:00,68.8,12.88,65.9,65.5,66.3,70.0,64.6,52,58,40,1.102,47.9,49.8,44.3,3.683,3.2,174,6.7,4.3,0.00007,0.00015,68.7,68.9,27,0,0,.,13.12,0.00,0.00
15min,AgWx,beryljct,423,05AUG2021:23:30:00,67.9,12.87,69.3,69.3,67.9,69.6,65.4,45,53,41,0.996,45.7,47.9,44.5,3.464,3.5,177,8.9,4.1,0.00016,0.00027,68.7,68.9,27,0,0,.,13.13,0.00,0.00
15min,AgWx,bigpiney,439,05AUG2021:00:00:00,56.2,12.63,49.7,49.7,52.2,55.4,49.4,65,72,57,0.864,40.6,41.6,39.9,1.491,1.8,55,52,5.7,-0.00007,-0.00008,58.1,56.1,45,0,0,0.0,2.86,0.00,0.00
15min,AgWx,bigpiney,439,05AUG2021:00:15:00,55.2,12.63,50.1,49.7,49.8,50.7,48.8,72,75,70,0.885,41.0,41.5,40.4,1.425,1.2,132,23,2.0,-0.00013,-0.00017,58.1,56.2,45,0,0,0.0,2.86,0.00,0.00
15min,AgWx,bigpiney,439,05AUG2021:00:30:00,54.2,12.62,46.0,45.9,47.9,49.7,45.9,77,80,72,0.834,41.1,42.1,39.9,3.902,3.8,219,26,5.1,-0.00001,0.00000,58.0,56.1,45,0,0,0.0,2.86,0.00,0.00
15min,AgWx,bigpiney,439,05AUG2021:00:45:00,53.0,12.62,48.1,49.0,47.8,49.3,45.9,74,80,69,0.819,39.9,40.5,39.3,3.595,3.3,262,5.4,5.1,-0.00001,0.00000,57.9,56.2,45,0,0,0.0,2.86,0.00,0.00
15min,AgWx,bigpiney,439,05AUG2021:01:00:00,52.0,12.6,55.8,53.9,49.7,53.9,46.9,68,75,59,0.835,39.6,40.4,38.0,0,4.3,261,28,9.1,0.00006,0.00011,57.8,56.1,45,0,0,0.0,2.86,0.00,0.00
15min,AgWx,bigpiney,439,05AUG2021:01:15:00,51.5,12.6,55.4,55.2,54.0,55.4,51.3,58,64,55,0.823,39.7,40.0,39.1,0,0.4,222,27,1.7,-0.00021,-0.00031,57.7,56.1,45,0,0,0.0,2.86,0.00,0.00
15min,AgWx,bigpiney,439,05AUG2021:01:30:00,51.3,12.59,54.2,54.0,53.6,55.3,51.7,58,62,55,0.817,39.4,39.7,38.3,0,1.3,214,7.7,4.4,-0.00011,-0.00014,57.6,56.1,45,0,0,0.0,2.86,0.00,0.00
15min,AgWx,bigpiney,439,05AUG2021:01:45:00,50.7,12.58,52.8,53.5,53.2,54.1,51.3,59,63,57,0.803,39.2,39.6,38.3,3.201,3.4,231,2.5,5.0,0.00007,0.00012,57.6,56.1,45,0,0,0.0,2.86,0.00,0.00
15min,AgWx,bigpiney,439,05AUG2021:02:00:00,50.0,12.58,45.5,46.0,50.8,54.1,46.0,61,71,55,0.746,37.8,39.2,36.7,5.59,5.1,243,12,6.8,0.00015,0.00021,57.5,56.1,45,0,0,0.0,2.86,0.00,0.00
15min,AgWx,bigpiney,439,05AUG2021:02:15:00,49.6,12.56,49.9,48.1,46.1,48.1,44.9,72,75,69,0.789,37.7,38.5,37.0,3.771,5.0,258,15,5.8,0.00005,0.00009,57.4,56.1,45,0,0,0.0,2.86,0.00,0.00
15min,AgWx,bigpiney,439,05AUG2021:02:30:00,49.1,12.56,52.2,50.8,49.2,51.0,47.7,66,69,61,0.789,38.2,38.9,36.8,4.056,3.8,266,19,5.5,0.00005,0.00009,57.3,56.0,45,0,0,0.0,2.86,0.00,0.00
15min,AgWx,bigpiney,439,05AUG2021:02:45:00,48.7,12.55,45.2,45.6,45.8,51.0,44.0,72,78,61,0.769,37.3,38.5,36.2,4.253,4.4,225,15,5.4,0.00004,0.00007,57.2,56.0,45,0,0,0.0,2.86,0.00,0.00
15min,AgWx,bigpiney,439,05AUG2021:03:00:00,48.1,12.54,46.0,44.7,44.0,45.6,41.9,77,81,74,0.777,37.2,38.0,35.5,2.959,3.6,236,34,5.4,-0.00002,-0.00001,57.1,56.0,45,0,0,0.0,2.86,0.00,0.00
15min,AgWx,bigpiney,439,05AUG2021:03:15:00,47.7,12.52,45.9,46.5,46.8,48.0,44.8,70,77,67,0.744,37.6,38.0,36.9,1.271,2.8,237,14,5.0,-0.00002,-0.00001,57.1,56.0,45,0,0,0.0,2.86,0.00,0.00
15min,AgWx,bigpiney,439,05AUG2021:03:30:00,47.7,12.52,43.9,43.9,44.2,46.4,42.9,74,77,69,0.712,36.5,37.0,35.8,4.231,2.0,244,18,4.4,-0.00008,-0.00010,57.0,56.0,45,0,0,0.0,2.86,0.00,0.00
15min,AgWx,bigpiney,439,05AUG2021:03:45:00,47.4,12.5,46.0,46.1,45.2,46.9,43.0,73,79,70,0.748,37.2,38.1,35.8,0,1.9,295,11,5.4,-0.00008,-0.00010,56.9,55.9,45,0,0,0.0,2.86,0.00,0.00
15min,AgWx,bigpiney,439,05AUG2021:04:00:00,46.9,12.5,39.5,39.7,42.9,46.7,39.7,76,82,69,0.677,35.8,37.7,34.4,4.319,3.9,187,16,5.7,-0.00000,0.00001,56.8,55.9,45,0,0,0.0,2.86,0.00,0.00
15min,AgWx,bigpiney,439,05AUG2021:04:15:00,46.3,12.48,41.4,41.4,41.0,41.8,39.5,79,82,76,0.686,34.9,35.5,34.5,1.425,3.2,208,5.9,4.9,-0.00004,-0.00004,56.7,55.9,45,0,0,0.0,2.86,0.00,0.00
15min,AgWx,bigpiney,439,05AUG2021:04:30:00,45.7,12.47,40.8,40.9,41.1,41.9,40.3,78,80,76,0.680,34.8,35.2,34.3,0,0.2,216,0.6,1.6,-0.00020,-0.00031,56.6,55.9,45,0,0,0.0,2.86,0.00,0.00
15min,AgWx,bigpiney,439,05AUG2021:04:45:00,45.0,12.47,42.0,42.2,41.0,42.2,39.3,78,83,76,0.697,34.8,35.9,33.1,2.433,0.6,253,33,2.4,-0.00017,-0.00025,56.5,55.9,45,0,0,0.0,2.86,0.00,0.00
15min,AgWx,bigpiney,439,05AUG2021:05:00:00,44.3,12.46,43.7,43.5,43.6,44.6,42.1,73,77,70,0.695,35.5,35.9,34.3,4.647,3.4,211,3.1,5.2,-0.00001,0.00000,56.4,55.8,45,0,0,0.0,2.86,0.00,0.00
15min,AgWx,bigpiney,439,05AUG2021:05:15:00,43.8,12.45,39.5,40.3,43.0,46.5,40.2,72,79,64,0.649,34.5,36.3,33.5,1.381,3.4,199,11,5.3,0.00000,0.00002,56.3,55.8,45,1,0,0.0,2.86,0.00,0.00
15min,AgWx,bigpiney,439,05AUG2021:05:30:00,43.4,12.45,38.7,38.9,38.9,40.2,37.9,81,83,77,0.647,33.5,34.1,32.3,0,0.6,206,60,2.9,-0.00018,-0.00017,56.3,55.8,45,6,0,0.0,2.86,0.00,0.00
15min,AgWx,bigpiney,439,05AUG2021:05:45:00,43.0,12.47,43.4,41.9,38.4,41.9,36.8,84,87,76,0.686,33.8,35.2,32.7,2.806,0.9,172,50,2.8,-0.00021,-0.00021,56.2,55.8,45,20,0,0.0,2.86,0.00,0.00
15min,AgWx,bigpiney,439,05AUG2021:06:00:00,42.7,12.51,43.4,43.1,41.7,43.2,39.6,76,80,72,0.701,34.7,36.0,33.3,1.666,2.5,31,9.3,3.9,-0.00006,0.00002,56.1,55.7,45,51,0,0.0,2.86,0.00,0.00
15min,AgWx,bigpiney,439,05AUG2021:06:15:00,42.9,12.53,42.4,42.2,42.4,43.1,41.8,77,79,74,0.713,35.6,36.0,35.2,0,0.8,14,3.4,2.0,0.00007,0.00010,56.0,55.7,45,76,0,0.0,2.86,0.00,0.00
15min,AgWx,bigpiney,439,05AUG2021:06:30:00,43.5,12.56,43.6,42.9,42.6,43.1,42.2,79,82,76,0.749,36.4,37.4,35.8,2.74,1.9,222,8.5,3.0,0.00029,0.00036,55.9,55.7,45,98,0,0.0,2.86,0.00,0.00
15min,AgWx,bigpiney,439,05AUG2021:06:45:00,44.4,12.63,45.7,45.5,44.3,45.5,43.1,79,81,78,0.822,38.3,39.5,37.1,0.548,2.0,251,14,2.9,0.00045,0.00055,55.8,55.6,45,122,0,0.0,2.86,0.00,0.00
15min,AgWx,bigpiney,439,05AUG2021:07:00:00,45.7,12.75,48.2,48.1,46.9,48.1,45.4,77,79,74,0.873,40.2,41.1,39.1,2.302,1.3,244,15,3.5,0.00067,0.00077,55.7,55.6,45,170,0,0.0,2.86,0.00,0.00
15min,AgWx,bigpiney,439,05AUG2021:07:15:00,47.5,12.93,50.0,49.9,49.0,49.9,48.0,73,77,69,0.894,40.7,41.8,39.8,3.288,2.9,218,6.7,4.4,0.00103,0.00121,55.7,55.6,45,231,0,0.0,2.86,0.00,0.00
15min,AgWx,bigpiney,439,05AUG2021:07:30:00,49.6,13.23,53.3,52.5,51.3,52.5,49.9,71,77,66,0.914,42.0,43.4,40.7,1.052,2.8,223,11,3.9,0.00141,0.00164,55.6,55.5,45,304,0,0.0,2.86,0.00,0.00
15min,AgWx,bigpiney,439,05AUG2021:07:45:00,51.8,13.4,54.7,54.6,53.6,54.6,52.6,64,71,58,0.869,41.6,44.0,40.1,0,1.2,192,17,2.7,0.00165,0.00184,55.5,55.5,45,335,0,0.0,2.86,0.00,0.00
15min,AgWx,bigpiney,439,05AUG2021:08:00:00,53.9,13.53,56.1,56.1,55.4,56.2,54.6,59,63,55,0.882,41.4,43.0,39.5,0.088,0.3,143,11,1.6,0.00196,0.00211,55.4,55.5,45,385,0,0.0,2.86,0.00,0.00
15min,AgWx,bigpiney,439,05AUG2021:08:15:00,56.3,13.76,57.6,58.2,57.0,58.2,56.1,59,62,54,0.996,42.6,45.1,40.9,2.214,0.7,163,21,2.3,0.00233,0.00254,55.4,55.4,45,437,0,0.0,2.86,0.00,0.00
15min,AgWx,bigpiney,439,05AUG2021:08:30:00,58.8,14.4,58.9,59.1,58.5,59.2,57.7,57,61,54,0.933,43.5,45.8,41.9,1.118,1.6,147,25,3.9,0.00273,0.00304,55.3,55.4,45,490,0,0.0,2.86,0.00,0.00